Regional Weather Roundup
Issued by NWS

Home | Current Version | Previous Version | Graphics & Text | Print | Product List | Glossary On
Versions: 1 2 3 4 5 6 7 8 9 10 11 12 13 14 15 16 17 18 19 20 21 22 23 24 25 26 27 28 29 30 31 32 33 34 35 36 37 38 39 40 41 42 43 44 45 46 47 48 49 50
000
ASUS43 KFSD 250910
RWRSD

WEATHER ROUNDUP FOR SOUTH DAKOTA
NATIONAL WEATHER SERVICE SIOUX FALLS SD
300 AM CST SUN JAN 25 2015

NOTE: "FAIR" INDICATES FEW OR NO CLOUDS BELOW 12,000 FEET WITH NO
SIGNIFICANT WEATHER AND/OR OBSTRUCTIONS TO VISIBILITY.


SDZ001>005-009-010-012>017-251000-
NORTHWEST AND NORTH CENTRAL SOUTH DAKOTA

CITY           SKY/WX    TMP DP  RH WIND       PRES   REMARKS
BUFFALO          N/A     34  26  72 NW23      29.94R WCI  22
FAITH            N/A     34  27  75 W16       29.97R WCI  24
MOBRIDGE       CLOUDY    38  33  82 NW17      29.87R
$$

SDZ012>016-024>037-041>051-057-063-072>074-251000-
SOUTHWEST AND SOUTH CENTRAL SOUTH DAKOTA

CITY           SKY/WX    TMP DP  RH WIND       PRES   REMARKS
RAPID CTY ARPT CLEAR     37  22  54 NW17      30.02R
PIERRE         CLOUDY    37  31  78 NW17      29.91R
CUSTER         CLEAR     31  11  43 NW13G21   30.01R WCI  21
ELLSWORTH AFB  CLEAR     37  23  56 NW22G29   30.01R
PHILIP         CLEAR     37  29  72 NW18G26   29.98R
PINE RIDGE     CLEAR     27  21  78 W5        30.03R WCI  22
WINNER         CLOUDY    39  33  79 NW24G35   29.90R
$$

SDZ004>011-016>023-039-040-251000-
NORTHEAST SOUTH DAKOTA

CITY           SKY/WX    TMP DP  RH WIND       PRES   REMARKS
ABERDEEN       CLOUDY    30  27  88 N12       29.89R WCI  20
WATERTOWN      CLOUDY    31  30  96 N14       29.80R WCI  21
SISSETON         N/A     29  28  96 N16       29.86R WCI  17
$$

SDZ017-020-022-023-036>040-048>070-251000-
SOUTHEAST SOUTH DAKOTA

CITY           SKY/WX    TMP DP  RH WIND       PRES   REMARKS
SIOUX FALLS    FLURRIES  33  31  92 N17       29.76R WCI  22
HURON          CLOUDY    31  29  92 N15       29.86R WCI  20
CHAMBERLAIN    DRIZZLE   35  34  97 NW10      29.88R WCI  27
MITCHELL       CLOUDY    33  31  92 N16       29.86R WCI  23
YANKTON        CLOUDY    34  30  86 NW20G28   29.81R WCI  22
$$

ABBREVIATIONS USED IN REMARKS
   TC - TEMPERATURE IN CELSIUS
  WCI - WIND CHILL INDEX
   HX - HEAT INDEX
  VSB - VISIBILITY



USA.gov is the U.S. government's official web portal to all federal, state and local government web resources and services.